Location: Rumah Geringgi
(3.1667°N, 113.1667°E)
Time: 20:40:32
(UTC+00:00)

Cosmos 1674 Rocket - Pass Details

Date: 03 August 2024
Orbit: 598 x 626 km, 82.5° (Epoch: 19 September)

Event Time Altitude Azimuth Distance (km) Brightness Sun altitude
Rises 21:41:28 0° 354° (N) 2,894 7.2 -11.4°
Reaches altitude 10° 21:43:41 10° 353° (N) 1,989 6.3 -10.9°
Maximum altitude 21:48:06 79° 267° (W) 637 3.5 -9.9°
Drops below altitude 10° 21:52:30 10° 180° (S) 1,984 6.0 -8.8°
Sets 21:54:43 0° 179° (S) 2,887 6.8 -8.3°
